Meteo pe oră la Dzisnity

Astăzi, 5 Martie, Vineri

Timp Temperatura Precipitaţii Vânt Presiune Umiditate
00:00 -3°C° 0 mm 2 m/s 751 mmHg 85%
01:00 -3°C° 0 mm 2 m/s 752 mmHg 86%
02:00 -3°C° 0 mm 2 m/s 752 mmHg 85%
03:00 -3°C° 0 mm 2 m/s 752 mmHg 83%
04:00 -1°C° 0 mm 1 m/s 752 mmHg 82%
05:00 -1°C° 0 mm 1 m/s 752 mmHg 82%
06:00 -1°C° 0 mm 1 m/s 753 mmHg 82%
07:00 -1°C° 0 mm 1 m/s 753 mmHg 81%
08:00 -2°C° 0.1 mm 2 m/s 753 mmHg 74%
09:00 -1°C° 0.1 mm 2 m/s 754 mmHg 66%
10:00 +1°C° 0.1 mm 3 m/s 754 mmHg 59%
11:00 +1°C° 0.2 mm 3 m/s 754 mmHg 53%
12:00 +1°C° 0.2 mm 4 m/s 754 mmHg 48%
13:00 +1°C° 0.2 mm 4 m/s 755 mmHg 42%
14:00 +1°C° 0 mm 4 m/s 755 mmHg 45%
15:00 0°C° 0 mm 4 m/s 755 mmHg 48%
16:00 +1°C° 0 mm 3 m/s 755 mmHg 51%
17:00 0°C° 0 mm 3 m/s 756 mmHg 59%
18:00 -1°C° 0 mm 3 m/s 756 mmHg 66%
19:00 -2°C° 0 mm 3 m/s 756 mmHg 74%
20:00 -2°C° 0 mm 3 m/s 757 mmHg 77%
21:00 -4°C° 0 mm 3 m/s 757 mmHg 79%
22:00 -4°C° 0 mm 3 m/s 758 mmHg 82%
23:00 -4°C° 0 mm 3 m/s 758 mmHg 81%

Mâine, 6 Martie, Sâmbătă

Timp Temperatura Precipitaţii Vânt Presiune Umiditate
00:00 -3°C° 0 mm 2 m/s 759 mmHg 80%
01:00 -3°C° 0 mm 2 m/s 759 mmHg 80%
02:00 -3°C° 0 mm 2 m/s 759 mmHg 78%
03:00 -3°C° 0 mm 2 m/s 759 mmHg 77%
04:00 -3°C° 0 mm 2 m/s 759 mmHg 76%
05:00 -3°C° 0 mm 2 m/s 759 mmHg 76%
06:00 -3°C° 0 mm 2 m/s 760 mmHg 75%
07:00 -3°C° 0 mm 2 m/s 760 mmHg 74%
08:00 -2°C° 0 mm 2 m/s 760 mmHg 68%
09:00 -1°C° 0 mm 2 m/s 760 mmHg 61%
10:00 +1°C° 0 mm 3 m/s 760 mmHg 55%
11:00 +1°C° 0 mm 3 m/s 760 mmHg 52%
12:00 +1°C° 0 mm 4 m/s 759 mmHg 48%
13:00 +2°C° 0 mm 5 m/s 759 mmHg 45%
14:00 +1°C° 0 mm 5 m/s 758 mmHg 47%
15:00 +1°C° 0 mm 5 m/s 758 mmHg 49%
16:00 +1°C° 0 mm 5 m/s 757 mmHg 51%
17:00 0°C° 0 mm 5 m/s 757 mmHg 56%
18:00 -1°C° 0 mm 5 m/s 756 mmHg 61%
19:00 -2°C° 0 mm 6 m/s 756 mmHg 66%
20:00 -2°C° 0 mm 6 m/s 755 mmHg 74%
21:00 -2°C° 0 mm 6 m/s 755 mmHg 82%
22:00 -2°C° 0 mm 7 m/s 754 mmHg 90%
23:00 -2°C° 0 mm 7 m/s 754 mmHg 88%

Poimâine, 7 Martie, Duminică

Timp Temperatura Precipitaţii Vânt Presiune Umiditate
00:00 -2°C° 0 mm 7 m/s 753 mmHg 85%
01:00 -2°C° 0 mm 8 m/s 753 mmHg 83%
02:00 -2°C° 0.1 mm 8 m/s 752 mmHg 87%
03:00 -4°C° 0.1 mm 8 m/s 752 mmHg 91%
04:00 -4°C° 0.1 mm 8 m/s 752 mmHg 95%
05:00 -4°C° 0.3 mm 8 m/s 752 mmHg 95%
06:00 -4°C° 0.3 mm 8 m/s 751 mmHg 95%
07:00 -3°C° 0.3 mm 7 m/s 751 mmHg 95%
08:00 -2°C° 0.3 mm 7 m/s 751 mmHg 96%
09:00 -2°C° 0.3 mm 7 m/s 751 mmHg 96%
10:00 -2°C° 0.3 mm 7 m/s 751 mmHg 96%
11:00 -2°C° 0.5 mm 7 m/s 751 mmHg 96%
12:00 -2°C° 0.5 mm 7 m/s 751 mmHg 96%
13:00 -2°C° 0.5 mm 7 m/s 750 mmHg 96%
14:00 -2°C° 0.4 mm 7 m/s 750 mmHg 96%
15:00 -2°C° 0.4 mm 7 m/s 750 mmHg 95%
16:00 -2°C° 0.4 mm 7 m/s 749 mmHg 95%
17:00 -2°C° 0.9 mm 7 m/s 749 mmHg 95%
18:00 -3°C° 0.9 mm 6 m/s 749 mmHg 96%
19:00 -2°C° 0.9 mm 5 m/s 749 mmHg 96%
20:00 -3°C° 0.3 mm 4 m/s 749 mmHg 94%
21:00 -4°C° 0.3 mm 3 m/s 749 mmHg 92%
22:00 -1°C° 0.3 mm 1 m/s 749 mmHg 90%
23:00 -4°C° 0 mm 2 m/s 749 mmHg 89%

8 Martie, Luni

Timp Temperatura Precipitaţii Vânt Presiune Umiditate
00:00 -4°C° 0 mm 2 m/s 749 mmHg 89%
01:00 -5°C° 0 mm 2 m/s 750 mmHg 88%
02:00 -5°C° 0 mm 2 m/s 750 mmHg 88%
03:00 -6°C° 0 mm 3 m/s 750 mmHg 87%
04:00 -6°C° 0 mm 3 m/s 749 mmHg 86%
05:00 -5°C° 0 mm 3 m/s 750 mmHg 87%
06:00 -5°C° 0 mm 3 m/s 750 mmHg 88%
07:00 -5°C° 0 mm 3 m/s 751 mmHg 89%
08:00 -4°C° 0.1 mm 4 m/s 751 mmHg 83%
09:00 -3°C° 0.1 mm 4 m/s 751 mmHg 78%
10:00 -2°C° 0.1 mm 5 m/s 752 mmHg 72%
11:00 -3°C° 0.1 mm 6 m/s 752 mmHg 72%
12:00 -3°C° 0.1 mm 6 m/s 752 mmHg 71%
13:00 -3°C° 0.1 mm 6 m/s 753 mmHg 70%
14:00 -3°C° 0 mm 6 m/s 753 mmHg 72%
15:00 -4°C° 0 mm 6 m/s 753 mmHg 73%
16:00 -4°C° 0 mm 6 m/s 754 mmHg 74%
17:00 -5°C° 0 mm 5 m/s 754 mmHg 78%
18:00 -5°C° 0 mm 4 m/s 754 mmHg 81%
19:00 -6°C° 0 mm 3 m/s 755 mmHg 84%
20:00 -6°C° 0 mm 3 m/s 755 mmHg 84%
21:00 -5°C° 0 mm 2 m/s 756 mmHg 84%
22:00 -5°C° 0 mm 2 m/s 756 mmHg 84%
23:00 -5°C° 0 mm 2 m/s 756 mmHg 83%

9 Martie, Marţi

Timp Temperatura Precipitaţii Vânt Presiune Umiditate
00:00 -5°C° 0 mm 2 m/s 757 mmHg 83%
01:00 -3°C° 0 mm 1 m/s 757 mmHg 82%
02:00 -4°C° 0 mm 1 m/s 757 mmHg 81%
03:00 -4°C° 0 mm 1 m/s 757 mmHg 79%
04:00 -4°C° 0 mm 1 m/s 757 mmHg 78%
05:00 -4°C° 0 mm 1 m/s 757 mmHg 76%
06:00 -4°C° 0 mm 1 m/s 757 mmHg 74%
07:00 -4°C° 0 mm 1 m/s 757 mmHg 72%
08:00 -3°C° 0 mm 1 m/s 758 mmHg 67%
09:00 -2°C° 0 mm 1 m/s 758 mmHg 62%
10:00 -2°C° 0 mm 1 m/s 758 mmHg 56%
11:00 -3°C° 0 mm 2 m/s 758 mmHg 54%
12:00 -3°C° 0 mm 2 m/s 758 mmHg 51%
13:00 -2°C° 0 mm 2 m/s 758 mmHg 49%
14:00 -2°C° 0 mm 2 m/s 758 mmHg 50%
15:00 -2°C° 0 mm 2 m/s 757 mmHg 51%
16:00 -2°C° 0 mm 2 m/s 757 mmHg 52%
17:00 -1°C° 0 mm 1 m/s 757 mmHg 56%
18:00 -2°C° 0 mm 1 m/s 757 mmHg 60%
19:00 -3°C° 0 mm 1 m/s 757 mmHg 64%
20:00 -3°C° 0 mm 1 m/s 757 mmHg 65%
21:00 -5°C° 0 mm 2 m/s 757 mmHg 65%
22:00 -5°C° 0 mm 2 m/s 757 mmHg 66%
23:00 -5°C° 0 mm 2 m/s 757 mmHg 67%

10 Martie, Miercuri

Timp Temperatura Precipitaţii Vânt Presiune Umiditate
00:00 -5°C° 0 mm 2 m/s 756 mmHg 68%
01:00 -5°C° 0 mm 2 m/s 756 mmHg 69%
02:00 -6°C° 0 mm 3 m/s 756 mmHg 69%
03:00 -6°C° 0 mm 3 m/s 756 mmHg 69%
04:00 -6°C° 0 mm 3 m/s 755 mmHg 69%
05:00 -6°C° 0 mm 3 m/s 755 mmHg 69%
06:00 -5°C° 0 mm 3 m/s 755 mmHg 68%
07:00 -5°C° 0 mm 3 m/s 755 mmHg 67%
08:00 -4°C° 0 mm 3 m/s 755 mmHg 64%
09:00 -3°C° 0 mm 4 m/s 755 mmHg 60%
10:00 -2°C° 0 mm 4 m/s 755 mmHg 56%
11:00 -1°C° 0 mm 4 m/s 754 mmHg 55%
12:00 0°C° 0 mm 4 m/s 754 mmHg 53%
13:00 +1°C° 0 mm 4 m/s 754 mmHg 51%
14:00 +1°C° 0 mm 4 m/s 753 mmHg 53%
15:00 +2°C° 0 mm 3 m/s 753 mmHg 55%
16:00 +2°C° 0 mm 3 m/s 752 mmHg 57%
17:00 +1°C° 0 mm 3 m/s 752 mmHg 61%
18:00 0°C° 0 mm 3 m/s 751 mmHg 66%
19:00 -2°C° 0 mm 4 m/s 751 mmHg 70%
20:00 -2°C° 0 mm 4 m/s 751 mmHg 76%
21:00 -2°C° 0 mm 4 m/s 750 mmHg 81%
22:00 -2°C° 0 mm 4 m/s 750 mmHg 87%
23:00 -2°C° 0 mm 4 m/s 749 mmHg 86%
Arată mai mult

Formular de consimțământ

Meteoprog și furnizorii noștri de servicii pot stoca și accesa date personale, precum cookies, identificatori de dispozitiv sau alte tehnologii similare pe dispozitivul dumneavoastră și procesa astfel de date pentru a personaliza conținutul și reclamele, dar și pentru a oferi caracteristici de social media și pentru a analiza traficul.

  • Stocarea și/sau accesarea informațiilor pe dispozitivul dumneavoastră

    Cookies, identificatori de dispozitiv sau alte informații pot fi stocate sau accesate pe dispozitiv în scopurile indicate mai sus.

  • Reclame și conținut personalizat, evaluarea reclamelor și a conținutului, informații despre audiențe și dezvoltarea produselor

    Reclamele și conținutul pot fi personalizate pe baza unui profil. Pot fi adăugate date suplimentare pentru a personaliza mai bine reclamele și conținutul. Performanța reclamelor și conținutului poate fi măsurată. Pot fi obținute informații despre utilizatorii care au văzut reclamele și conținutul. Aceste date pot fi utilizate pentru a dezvolta sau îmbunătăți experiența utilizatorilor, sistemele și software-ul.

Dând clic pe ‘Sunt de acord’, permiteți utilizarea cookie-urilor menționate, a identificatorilor de dispozitiv, balizelor web sau altor tehnologii similare. Setările pot fi modificate din browser-ul dispozitivului dumneavoastră.

În anumite scopuri, interesele legitime pot prima asupra consimțământului. Puteți citi mai multe informații în acest sens în Politica privind Confidențialitatea Datelor și Cookie.